Marshfield, WI

12:38 AM CDT on May 28, 2018 (GMT -0500)
Marshfield Municipal

Weather History for KMFI - March, 2012

Change the Weather History Date:

Thursday, March 22, 2012

  Actual Average Record
Temperature  
Mean Temperature 64 °F -  
Max Temperature 72 °F 42 °F 72 °F (2012)
Min Temperature 57 °F 21 °F -4 °F (1940)
Degree Days  
Heating Degree Days 1    
Growing Degree Days 14 (Base 50)    
Moisture  
Dew Point 55 °F    
Average Humidity 79    
Maximum Humidity 93    
Minimum Humidity 57    
Precipitation  
Precipitation 0.06 in - - ()
Sea Level Pressure  
Sea Level Pressure 30.07 in    
Wind  
Wind Speed 8 mph (East)    
Max Wind Speed 17 mph    
Max Gust Speed 25 mph    
Visibility 9 miles    
Events Rain    
Averages and records for this station are not official NWS values.
T = Trace of Precipitation, MM = Missing Value Source: NWS Daily Summary

Daily Weather History Graph

Daily Weather History Graph

Search for Another Location

Airport or City:

Astronomy

Mar. 22, 2012 Rise Set
Actual Time 6:59 AM CDT 7:16 PM CDT
Civil Twilight 6:30 AM CDT 7:45 PM CDT
Nautical Twilight 5:55 AM CDT 8:19 PM CDT
Astronomical Twilight 5:20 AM CDT 8:55 PM CDT
Moon 6:36 AM CDT (3/22) 7:44 PM CDT (3/22)
Length of Visible Light 13h 15m
Length of Day
12h 17m
New Moon, 0% of the Moon is Illuminated
Mar 22
New Moon
Mar 30
First Quarter
Apr 6
Full
Apr 13
Last Quarter
Apr 21
New

Hourly Weather History & Observations

Time (CDT) Temp. Dew Point Humidity Pressure Visibility Wind Dir Wind Speed Gust Speed Precip Events Conditions
1:54 AM 59.0 °F 53.1 °F 81% 30.07 in 10.0 mi NE 5.8 mph - N/A   Clear
2:54 AM 59.0 °F 53.1 °F 81% 30.08 in 10.0 mi NE 5.8 mph - N/A   Clear
3:54 AM 57.9 °F 53.1 °F 84% 30.09 in 10.0 mi Calm Calm - 0.00 in Rain Light Rain
4:54 AM 57.0 °F 54.0 °F 89% 30.11 in 10.0 mi ESE 4.6 mph - 0.00 in Rain Light Rain
5:54 AM 57.9 °F 55.0 °F 90% 30.10 in 10.0 mi ENE 6.9 mph - 0.00 in Rain Light Rain
6:54 AM 59.0 °F 54.0 °F 83% 30.09 in 10.0 mi East 10.4 mph - 0.00 in   Overcast
7:54 AM 57.9 °F 54.0 °F 87% 30.11 in 10.0 mi East 11.5 mph - N/A   Overcast
8:54 AM 57.9 °F 54.0 °F 87% 30.10 in 10.0 mi East 10.4 mph - N/A   Partly Cloudy
10:54 AM 62.1 °F 54.0 °F 75% 30.11 in 10.0 mi East 15.0 mph 21.9 mph N/A   Overcast
11:54 AM 64.0 °F 55.0 °F 73% 30.10 in 10.0 mi East 17.3 mph 25.3 mph N/A   Mostly Cloudy
12:54 PM 66.9 °F 55.0 °F 66% 30.07 in 10.0 mi East 15.0 mph 21.9 mph N/A   Clear
1:54 PM 70.0 °F 55.0 °F 59% 30.06 in 10.0 mi East 13.8 mph - N/A   Clear
2:54 PM 70.0 °F 55.9 °F 61% 30.05 in 10.0 mi ESE 10.4 mph - N/A   Overcast
3:54 PM 71.1 °F 55.0 °F 57% 30.03 in 10.0 mi East 13.8 mph - N/A   Overcast
4:54 PM 69.1 °F 55.0 °F 61% 30.03 in 10.0 mi East 10.4 mph - N/A   Overcast
5:54 PM 68.0 °F 55.0 °F 63% 30.04 in 10.0 mi SE 11.5 mph - 0.00 in   Overcast
6:54 PM 64.0 °F 55.9 °F 75% 30.06 in 9.0 mi SE 5.8 mph - 0.00 in Rain Light Rain
7:54 PM 61.0 °F 57.9 °F 90% 30.07 in 6.0 mi ESE 9.2 mph - 0.05 in Rain Light Rain
8:54 PM 60.1 °F 57.9 °F 93% 30.06 in 6.0 mi East 8.1 mph - 0.01 in Rain Light Rain
9:54 PM 59.0 °F 57.0 °F 93% 30.06 in 6.0 mi East 5.8 mph - 0.00 in Rain Light Rain
10:54 PM 59.0 °F 57.0 °F 93% 30.04 in 6.0 mi ENE 8.1 mph - N/A   Scattered Clouds
11:54 PM 57.9 °F 55.0 °F 90% 30.04 in 10.0 mi East 6.9 mph - N/A   Scattered Clouds